Lander, WY

2:43 AM MDT on March 27, 2017 (GMT -0600)
Hunt

Weather History for KLND - September, 2012

Change the Weather History Date:

Friday, September 21, 2012

  Actual Average Record
Temperature  
Mean Temperature 62 °F 56 °F  
Max Temperature 79 °F 70 °F 87 °F (1905)
Min Temperature 45 °F 42 °F 25 °F (1983)
Degree Days  
Heating Degree Days 3 9  
Month to date heating degree days 49 115  
Since 1 July heating degree days 51 155  
Cooling Degree Days 0 0  
Month to date cooling degree days 36 26  
Year to date cooling degree days 779 471  
Growing Degree Days 15 (Base 50)    
Moisture  
Dew Point 28 °F    
Average Humidity 27    
Maximum Humidity 38    
Minimum Humidity 15    
Precipitation  
Precipitation 0.00 in 0.04 in 1.63 in (1895)
Month to date precipitation 0.14 0.64  
Year to date precipitation 4.82 9.52  
Snow  
Snow 0.00 in 0.10 in - ()
Month to date snowfall 0.0 1.2  
Since 1 July snowfall 0.0 1.2  
Since 1 September snowfall 0.0 1.2  
Snow Depth 0.00 in    
Sea Level Pressure  
Sea Level Pressure 30.07 in    
Wind  
Wind Speed 4 mph (WNW)    
Max Wind Speed 12 mph    
Max Gust Speed -    
Visibility 8 miles    
Events      
T = Trace of Precipitation, MM = Missing Value Source: NWS Daily Summary

Daily Weather History Graph

Daily Weather History Graph

Search for Another Location

Airport or City:

Trip Planner

Search our weather history database for the weather conditions in past years. The results will help you decide how hot, cold, wet, or windy it might be!

Date:

Astronomy

Sep. 21, 2012 Rise Set
Actual Time 7:01 AM MDT 7:13 PM MDT
Civil Twilight 6:33 AM MDT 7:41 PM MDT
Nautical Twilight 6:00 AM MDT 8:14 PM MDT
Astronomical Twilight 5:26 AM MDT 8:48 PM MDT
Moon 1:35 PM MDT (9/21) 11:08 PM MDT (9/21)
Length of Visible Light 13h 07m
Length of Day
12h 11m
Waxing Crescent, 38% of the Moon is Illuminated
Sep 21
Waxing Crescent
Sep 22
First Quarter
Sep 29
Full
Oct 8
Last Quarter
Oct 15
New

Hourly Weather History & Observations

Time (MDT) Temp. Dew Point Humidity Pressure Visibility Wind Dir Wind Speed Gust Speed Precip Events Conditions
12:53 AM 55.9 °F 28.0 °F 34% 30.04 in 9.0 mi Calm Calm - N/A   Clear
1:53 AM 55.0 °F 28.0 °F 35% 30.05 in 9.0 mi Calm Calm - N/A   Clear
2:53 AM 54.0 °F 27.0 °F 35% 30.05 in 9.0 mi Calm Calm - N/A   Clear
3:53 AM 53.1 °F 27.0 °F 37% 30.06 in 6.0 mi West 5.8 mph - N/A   Haze
4:53 AM 52.0 °F 26.1 °F 37% 30.07 in 6.0 mi West 3.5 mph - N/A   Haze
5:53 AM 53.1 °F 27.0 °F 37% 30.07 in 6.0 mi WSW 5.8 mph - N/A   Haze
6:53 AM 51.1 °F 26.1 °F 38% 30.11 in 8.0 mi Calm Calm - N/A   Clear
7:53 AM 51.1 °F 27.0 °F 39% 30.14 in 5.0 mi West 3.5 mph - N/A   Haze
8:53 AM 55.9 °F 30.0 °F 37% 30.14 in 6.0 mi Calm Calm - N/A   Haze
9:53 AM 60.1 °F 34.0 °F 38% 30.14 in 6.0 mi Calm Calm - N/A   Haze
10:53 AM 68.0 °F 30.0 °F 24% 30.12 in 6.0 mi Variable 3.5 mph - N/A   Haze
11:53 AM 71.1 °F 30.0 °F 22% 30.10 in 6.0 mi Calm Calm - N/A   Haze
12:53 PM 75.0 °F 28.9 °F 18% 30.08 in 5.0 mi SSE 4.6 mph - N/A   Haze
1:53 PM 78.1 °F 28.0 °F 16% 30.05 in 6.0 mi NW 5.8 mph - N/A   Haze
2:53 PM 77.0 °F 26.1 °F 15% 30.04 in 9.0 mi Variable 3.5 mph - N/A   Clear
3:53 PM 79.0 °F 27.0 °F 15% 30.02 in 10.0 mi NE 9.2 mph - N/A   Clear
4:53 PM 77.0 °F 26.1 °F 15% 30.02 in 10.0 mi NNE 10.4 mph - N/A   Clear
5:53 PM 75.9 °F 27.0 °F 16% 30.02 in 10.0 mi NNE 5.8 mph - N/A   Clear
6:53 PM 71.1 °F 28.0 °F 20% 30.04 in 10.0 mi NE 9.2 mph - N/A   Clear
7:53 PM 66.0 °F 27.0 °F 23% 30.07 in 10.0 mi WSW 4.6 mph - N/A   Clear
8:53 PM 63.0 °F 26.1 °F 25% 30.08 in 10.0 mi WSW 11.5 mph - N/A   Clear
9:53 PM 60.1 °F 27.0 °F 28% 30.09 in 10.0 mi Calm Calm - N/A   Clear
10:53 PM 61.0 °F 26.1 °F 26% 30.07 in 10.0 mi SW 6.9 mph - N/A   Clear
11:53 PM 57.0 °F 27.0 °F 32% 30.08 in 10.0 mi Calm Calm - N/A   Clear